Other Public Products
Issued by NWS Charleston, SC

Current Version | Previous Version | Graphics & Text | Print | Product List | Glossary On
Versions: 1 2 3 4 5 6 7 8 9 10 11 12 13 14 15 16 17 18 19 20 21 22 23 24 25 26 27 28 29 30 31 32 33 34 35 36 37 38 39 40 41 42 43 44 45 46 47 48 49 50
000 FPUS82 KCHS 170412 OPUCHS TEST...KCHS/KSAV Gateway Observations...TEST National Weather Service Charleston SC 1200 AM EDT THU AUG 17 2017 NOTE: "fair" indicates few or no clouds below 12,000 feet with no significant weather and/or obstructions to visibility. SCZ050-WAZ558-NCZ071-TXZ119-213-PAZ071-DCZ001-FLZ074-172-MI076- NYZ176-178-MAZ016-IL014-TNZ027-NJZ106-GAZ044-MD014-170500- ...Gateway Observations for Charleston International... CITY SKY/WX TMP DP RH WIND PRES REMARKS Chas Airport CLEAR 83 79 88 SW6 30.02R HX 94 Seattle PTCLDY 70 51 51 SW3 30.08R Charlotte MOCLDY 80 76 87 NW5 30.06S Dallas DFW PTCLDY 88 70 55 S9 29.87R HX 93 Dallas Love PTCLDY 91 68 46 S12 29.87R HX 95 Philladelphia PTCLDY 76 69 79 CALM 30.02S Wash National CLOUDY 81 76 84 SE3 30.03S Baltimore PTCLDY 72 71 97 CALM 30.03S Miami PTCLDY 86 75 69 SE5 30.08S HX 95 Detroit CLOUDY 72 61 68 E5 30.01S Newark CLEAR 75 62 64 NW6 30.01R Laguardia PTCLDY 78 67 68 NW9 30.00S J F K CLEAR 75 72 90 N3 30.02R Boston Logan PTCLDY 71 45 39 NW8 30.02R Ft. Lauderdale PTCLDY 86 75 69 SE9 30.07S HX 95 Chicago O`Hare CLOUDY 78 73 84 S14G25 29.82F Chicago Midway CLOUDY 81 72 74 S13 29.83F Houston Bush PTCLDY 85 77 77 S8 29.98R HX 95 Houston Hobby MOCLDY 85 77 77 S6 29.97S HX 95 Nashville CLOUDY 76 73 91 S6 30.03R Atlanta PTCLDY 81 74 79 W6 30.09F $$ GAZ044-118-TXZ119-213-NCZ071-DCZ001-MDZ014-506-PAZ021-071-NJZ106- NYZ176-178-MAZ106-OHZ011-021-055-MIZ076-KYZ091-ILZ014-INZ047- MNZ060-ONZ431-170500- ...Gateway Observations for Savannah International... CITY SKY/WX TMP DP RH WIND PRES REMARKS Savannah Arpt PTCLDY 84 79 85 SW7 30.04S HX 96 Atlanta PTCLDY 81 74 79 W6 30.09F Charlotte MOCLDY 80 76 87 NW5 30.06S Dallas DFW PTCLDY 88 70 55 S9 29.87R HX 93 Houston Bush PTCLDY 85 77 77 S8 29.98R HX 95 Wash National CLOUDY 81 76 84 SE3 30.03S Wash Dulles CLOUDY 75 72 90 CALM 30.04S Baltimore PTCLDY 72 71 97 CALM 30.03S Philadelphia PTCLDY 76 69 79 CALM 30.02S Newark CLEAR 75 62 64 NW6 30.01R Laguardia PTCLDY 78 67 68 NW9 30.00S J F K CLEAR 75 72 90 N3 30.02R Boston PTCLDY 71 45 39 NW8 30.02R Pittsburg PTCLDY 72 62 71 CALM 30.06S Akron PTCLDY 72 60 66 E6 30.05S Cleveland PTCLDY 74 57 55 SE5 30.04S Cincinnati MOCLDY 77 73 87 S7 29.99S Columbus PTCLDY 73 70 90 CALM 30.00S Detroit CLOUDY 72 61 68 E5 30.01S Chicago O`Hare CLOUDY 78 73 84 S14G25 29.82F Minneapolis CLOUDY 71 68 90 E9 29.60F Indianapolis CLOUDY 78 72 81 S9 29.93F Toronto Canada PTCLDY 68 59 73 NE3 30.07S $$

USA.gov is the U.S. government's official web portal to all federal, state and local government web resources and services.